Location: *
(45.1333°S, 169.6333°W)
Time: 19:05:38
(UTC+00:00)

STARLINK-4064 - Pass Details

Date: 26 May 2022
Orbit: 480 x 482 km, 53.2° (Epoch: 06 July)

Event Time Altitude Azimuth Distance (km) Brightness Sun altitude
Rises 04:24:35 0° 284° (WNW) 2,432 9.2 -6.3°
Reaches altitude 10° 04:26:43 10° 277° (W) 1,607 7.5 -6.7°
Maximum altitude 04:30:15 44° 204° (SSW) 681 4.1 -7.2°
Drops below altitude 10° 04:33:58 10° 130° (SE) 1,690 5.5 -7.9°
Enters shadow 04:34:08 - 129° (SE) 1,750 5.6 -7.9°
